Hourly Data Report for September 20, 2017

All times are specified in Local Standard Time (LST). Add 1 hour to adjust for Daylight Saving Time where and when it is observed.

WOODSTOCK NEWBRIDGE
NEW BRUNSWICK

46°09'08.000" N
67°32'34.000" W
154.00 m
8105603
71606
EWD

Download Data

Hourly Data (September 2017)
Hourly Data Report for September 20, 2017
Temp Definition
°C
Dew Point Temp Definition
°C
Rel Hum Definition
%
Wind Dir Definition
10's deg

Wind Spd Definition
km/h
Visibility Definition
km
Stn Press Definition
kPa
Hmdx Definition


Wind Chill Definition


Weather Definition


TIME
00:00 16.9 16.5 98 14 3   100.24     LegendNANA
01:00 17.5 16.7 95 13 1   100.20     LegendNANA
02:00 17.1 16.4 96 0 1   100.17     LegendNANA
03:00 16.5 15.9 96   0   100.11     LegendNANA
04:00 16.7 16.1 97 0 1   100.09     LegendNANA
05:00 16.5 15.9 96 13 2   100.10     LegendNANA
06:00 16.6 16.0 96 13 2   100.10     LegendNANA
07:00 17.0 16.1 95   0   100.10     LegendNANA
08:00 16.8 15.9 95 13 1   100.11     LegendNANA
09:00 17.6 16.5 93   0   100.11     LegendNANA
10:00 19.2 17.1 88 1 2   100.09     LegendNANA
11:00 22.2 17.0 72 32 8   100.01 27   LegendNANA
12:00 23.6 18.1 71 31 5   99.97 30   LegendNANA
13:00 23.3 17.0 68 31 7   99.93 29   LegendNANA
14:00 24.7 16.8 62 30 8   99.89 30   LegendNANA
15:00 24.7 16.7 61 30 9   99.85 30   LegendNANA
16:00 23.7 16.8 66 30 11   99.86 29   LegendNANA
17:00 22.8 17.2 71 31 10   99.87 28   LegendNANA
18:00 22.0 16.8 72 33 9   99.84 27   LegendNANA
19:00 20.7 15.8 74 35 6   99.86 25   LegendNANA
20:00 19.3 14.6 74 35 3   99.92     LegendNANA
21:00 17.8 14.1 79 35 4   99.97     LegendNANA
22:00 17.5 12.7 74 35 3   100.04     LegendNANA
23:00 16.7 10.8 68 35 6   100.08     LegendNANA

Notes on Data Quality.

Legend

  • E = Estimated
  • M = Missing
  • NA = Not Available
  • ‡ = Partner data that is not subject to review by the National Climate Archives
Date modified: